Wind_Speed
11 14 15 14 14 14 14 14 13 10 8 7 8 6 7 8 9 11 11 12 12 13 14 15 14 12 12 12 12 12 11 10 10 11 12 12 12 12 13 13 12 12 13 14 13 13 12 11 10 10 11 11 13 14 17 19 19 19 21 22 22 23 23 23 23 22 19 19 19 19 19 19 18 19 19 18 18 17 17 17 18 18 18 17 17
13 15 15 13 13 13 13 13 12 10 8 6 7 7 6 9 12 13 12 12 12 13 14 15 14 12 11 12 12 12 10 9 10 11 12 12 11 12 12 12 12 11 12 12 12 11 11 10 10 11 11 12 13 15 18 19 18 18 20 21 21 21 21 21 22 20 17 17 19 19 19 18 17 17 17 18 18 17 16 16 16 17 17 16 17
16 15 15 13 11 11 11 10 11 10 9 7 6 7 6 8 13 12 11 12 13 14 15 15 14 12 11 11 11 10 9 9 9 10 11 11 11 11 11 11 11 11 11 11 11 11 10 10 10 11 11 11 13 15 18 19 17 18 19 20 19 19 21 22 22 20 17 18 19 19 18 18 18 17 17 17 17 16 16 16 16 17 16 16 16
16 15 15 12 9 9 10 9 10 10 10 8 6 8 8 8 10 11 12 13 13 14 15 15 14 12 11 11 10 8 8 8 9 10 10 10 10 10 10 11 11 11 11 11 11 11 10 9 10 11 11 11 13 14 17 18 17 18 18 17 18 21 25 25 24 22 21 21 20 18 17 18 19 18 17 17 16 16 16 16 16 16 15 15 16
14 14 14 13 10 9 9 9 9 10 11 9 8 8 9 9 9 12 14 14 13 13 16 15 14 12 11 10 9 8 8 8 9 9 9 9 10 9 9 10 10 10 11 11 11 11 10 10 10 10 10 10 12 13 15 17 16 17 18 19 21 24 26 26 24 21 19 20 18 17 18 18 17 16 17 17 16 16 16 16 16 16 15 15 16
13 12 13 14 12 9 9 9 8 9 11 10 10 9 9 10 10 11 12 14 13 14 16 16 14 13 10 10 9 8 8 8 8 9 9 9 9 9 10 10 10 11 10 11 12 11 10 10 10 10 10 10 11 12 15 16 16 16 18 22 23 23 23 22 21 18 16 16 17 16 16 15 15 15 15 16 16 16 16 16 15 15 14 15 15
13 12 11 13 12 9 8 8 8 9 11 12 11 10 11 11 10 10 12 13 12 14 17 16 15 13 11 10 9 8 8 8 9 9 9 9 10 9 10 9 9 11 11 11 11 10 10 9 9 10 10 10 11 12 14 15 15 15 18 22 22 20 21 20 17 16 13 13 16 14 14 15 14 14 14 15 15 14 15 14 14 14 13 13 14
14 13 12 14 13 10 9 9 9 9 10 12 12 12 12 12 12 10 14 14 11 15 18 16 15 13 11 10 9 9 9 8 9 10 10 10 10 9 9 10 10 11 11 11 11 10 9 9 9 10 10 10 12 13 13 14 14 15 17 19 20 21 20 18 16 14 12 13 14 12 13 14 13 13 14 14 13 13 13 13 14 14 14 14 14
16 14 13 16 15 12 10 10 10 10 10 12 13 13 13 13 13 12 14 15 13 16 18 17 14 13 12 11 10 9 9 9 10 10 10 10 9 9 10 11 11 11 11 11 11 10 9 9 9 9 10 10 12 12 12 13 13 14 15 15 18 21 20 19 17 13 13 15 14 12 13 15 14 13 13 12 12 12 12 13 14 14 13 14 14
17 14 14 16 16 14 12 11 11 10 11 11 13 14 14 14 14 14 15 14 14 16 17 16 14 13 12 11 10 9 10 10 10 11 10 9 9 10 11 12 11 11 10 10 10 9 9 9 9 9 10 11 12 11 11 11 11 11 12 13 17 20 20 19 18 15 14 15 14 13 14 14 14 12 11 11 13 12 12 12 13 13 13 13 13
17 16 16 17 16 14 13 12 12 11 11 11 12 13 14 14 14 15 15 14 15 17 16 15 16 14 12 11 10 10 11 10 10 11 10 9 9 10 11 12 11 10 9 9 10 9 9 9 8 9 9 10 11 11 11 10 10 9 10 12 15 16 15 15 14 14 14 12 11 14 14 13 13 12 11 11 12 11 11 13 14 13 13 13 13
17 17 18 19 18 16 15 14 13 12 11 11 12 13 13 14 14 14 14 14 16 18 17 16 17 14 12 11 11 11 11 10 11 11 11 10 10 11 11 12 11 10 9 9 9 9 8 8 8 8 9 10 11 11 11 10 9 9 9 11 13 12 12 11 12 14 13 12 12 15 13 12 13 13 12 11 11 11 13 13 12 12 13 13 14
18 17 19 20 19 17 15 15 14 12 12 12 12 12 12 13 14 14 13 14 15 17 17 17 17 14 12 12 12 11 11 11 11 10 10 10 10 11 11 11 11 10 10 9 8 8 8 7 7 8 9 10 10 11 10 10 9 9 10 11 12 9 9 9 11 13 13 11 12 12 10 12 14 13 11 12 11 11 13 13 12 12 12 13 13
18 17 19 19 18 16 14 15 15 13 12 11 11 11 11 11 13 13 12 14 15 16 17 17 16 14 13 13 12 12 12 11 10 10 9 9 10 10 11 11 12 11 11 9 8 7 7 7 7 7 8 10 10 11 10 11 10 11 12 11 9 6 6 7 9 12 11 10 10 8 9 12 14 12 10 10 11 11 12 12 11 11 12 12 12
18 17 18 17 16 15 14 16 15 12 11 10 10 10 10 11 11 12 12 13 15 16 17 15 15 15 15 14 13 13 12 11 10 10 9 9 9 10 11 12 12 12 11 9 8 6 7 7 7 8 8 9 10 10 10 11 10 11 12 10 7 5 5 8 10 12 11 10 10 8 9 11 13 12 9 10 10 11 11 11 11 11 11 11 11
19 18 17 16 15 15 14 14 13 10 9 10 10 9 9 10 10 11 12 12 13 14 15 15 16 17 15 14 13 13 12 11 10 9 9 10 9 10 12 12 13 13 12 9 8 7 7 8 8 8 8 9 9 10 10 10 9 10 12 11 8 5 5 10 13 12 10 10 10 7 8 10 12 11 9 9 9 10 10 10 11 11 11 11 10
19 17 16 16 14 13 13 12 11 8 9 10 9 8 8 8 9 10 11 12 12 12 13 15 17 17 14 13 13 12 12 10 10 10 10 10 10 11 12 12 13 13 11 9 7 7 8 8 7 7 8 9 9 10 10 9 9 10 12 11 9 8 8 11 12 12 10 10 11 8 8 10 11 10 9 9 8 9 10 10 10 10 10 10 10
19 17 15 14 12 10 10 9 9 7 7 8 8 8 8 7 8 9 10 10 10 11 12 13 15 15 13 12 12 11 11 10 10 10 10 11 11 12 12 12 13 12 10 8 7 7 8 7 7 8 9 10 10 9 9 9 9 9 10 11 11 11 10 10 11 11 10 9 11 9 8 9 10 10 9 9 8 9 9 9 10 9 9 10 10
17 17 16 13 11 10 7 5 6 5 5 6 6 6 7 7 7 8 8 8 9 10 11 12 13 13 12 12 11 10 10 10 11 12 12 12 12 12 12 12 12 10 8 7 6 6 7 7 7 8 9 9 9 8 8 8 8 8 9 11 13 12 9 8 9 10 9 8 9 8 7 8 9 10 10 9 8 8 8 8 9 8 9 10 8
12 14 16 15 13 11 8 5 5 4 4 4 4 5 6 6 6 7 7 7 8 9 10 10 11 12 12 12 11 10 10 11 12 15 14 13 13 12 12 12 11 8 7 6 5 5 6 7 8 9 9 8 8 8 7 7 8 7 7 11 13 9 8 9 9 9 10 9 6 5 7 7 9 10 9 8 7 8 8 8 8 8 9 8 6
10 11 11 12 13 13 10 7 5 4 3 4 4 6 7 7 6 7 8 8 8 8 9 10 11 12 12 12 11 9 10 11 13 15 15 15 14 12 12 12 10 7 6 5 5 5 7 7 8 9 9 8 7 7 6 7 7 7 6 8 12 8 8 8 8 9 10 9 6 5 6 5 8 10 9 8 7 8 8 7 7 8 8 6 4
11 9 8 7 9 12 11 7 5 4 3 2 3 4 5 7 6 7 9 9 9 9 9 10 11 12 12 12 11 9 9 10 12 14 15 16 16 13 13 12 9 7 6 5 5 6 7 8 9 9 8 8 7 7 6 6 7 8 5 6 11 8 8 3 4 7 7 8 7 5 5 4 7 10 8 7 6 7 8 7 7 8 7 6 5
12 9 8 6 6 6 8 8 6 4 4 2 2 2 3 7 7 7 9 10 10 10 11 11 11 12 13 12 10 10 11 11 10 11 13 15 16 15 13 12 10 8 8 7 6 6 6 7 9 9 8 8 8 7 6 6 8 9 7 8 10 8 5 4 4 6 6 8 7 5 4 4 8 11 8 7 6 6 8 7 6 7 6 6 6
11 9 8 7 6 5 6 6 6 4 4 3 2 3 3 6 7 6 9 10 10 10 11 11 11 11 12 12 10 11 12 11 9 9 10 12 14 15 14 12 11 10 10 9 8 7 6 7 9 10 9 9 9 10 9 7 8 9 9 9 8 6 6 6 4 5 7 8 7 4 4 5 9 11 9 7 7 6 7 6 5 6 5 7 7
11 9 7 6 6 5 5 5 4 4 3 2 0 2 4 4 5 7 9 10 11 12 11 11 11 11 11 11 9 10 11 11 10 10 11 12 12 14 14 13 12 11 12 11 10 10 10 10 10 10 10 11 11 12 13 10 7 6 8 8 5 5 6 6 5 4 8 7 5 4 3 4 8 10 9 7 7 6 7 5 4 5 5 7 7
12 10 8 5 5 5 6 4 3 3 2 2 1 2 6 5 5 6 9 11 11 13 14 12 10 11 10 9 9 8 9 10 11 13 14 14 14 14 14 14 14 14 14 13 12 13 14 13 12 10 10 12 12 12 12 10 8 5 5 5 4 6 7 6 5 4 7 7 5 5 4 4 9 10 9 8 7 6 6 5 4 3 3 5 6
12 11 9 6 6 7 6 5 4 3 1 1 5 5 3 6 6 5 7 11 12 12 14 11 8 11 11 9 10 7 7 9 10 14 14 14 16 16 15 14 16 17 17 15 14 15 16 15 14 11 9 11 10 11 10 9 8 6 7 6 5 7 8 7 6 5 6 6 6 5 3 3 7 10 9 9 8 7 6 6 4 2 1 3 4
13 11 9 7 6 6 6 5 5 3 3 4 4 5 4 2 2 3 6 9 10 10 13 12 8 9 9 9 10 7 7 9 10 13 14 15 17 18 18 17 17 19 18 17 17 17 17 17 16 13 11 9 7 9 9 9 8 7 8 7 6 6 7 8 7 7 7 6 5 3 2 2 5 9 11 10 8 8 7 6 5 3 2 2 3
13 11 9 7 6 6 5 5 5 3 2 4 3 4 6 6 5 2 2 5 7 8 9 9 7 7 5 6 9 8 6 7 10 13 15 16 17 18 19 19 19 19 20 20 19 19 19 18 16 14 13 10 7 7 7 9 9 8 8 8 8 6 6 7 7 8 9 7 6 5 3 3 4 7 11 11 9 9 8 7 6 4 3 2 1
13 11 8 7 7 7 6 5 4 4 3 3 5 5 5 5 5 3 2 0 4 8 6 4 4 4 3 3 5 6 4 6 11 14 15 14 15 18 19 20 22 21 21 22 20 19 18 17 16 13 12 10 9 8 7 8 10 10 9 8 8 7 7 9 8 7 9 9 8 7 5 5 4 5 7 10 11 9 8 9 7 4 5 4 2
13 11 9 7 7 7 7 6 5 6 5 4 6 5 4 5 4 4 5 4 1 4 6 5 3 2 3 3 4 4 3 5 9 11 14 12 11 17 20 21 24 23 21 21 21 20 18 17 16 12 10 10 10 11 9 7 8 8 9 9 9 8 8 9 9 8 9 10 10 8 7 6 5 5 6 9 12 12 9 10 8 6 6 5 4
14 12 11 9 7 9 8 7 6 6 7 6 6 5 4 5 4 5 5 4 4 2 2 2 3 3 2 2 3 4 3 5 7 8 11 13 12 13 18 21 25 23 21 20 19 18 18 17 15 13 11 10 8 10 9 7 7 7 8 10 10 9 9 9 9 9 9 11 11 10 9 7 7 8 8 9 12 14 12 11 9 8 7 5 5
15 13 12 11 9 9 9 8 8 7 8 7 6 5 5 5 5 5 5 4 3 1 1 2 1 5 5 1 2 3 3 5 7 6 8 11 11 9 11 16 21 22 22 19 16 14 15 15 14 14 12 10 8 7 7 7 7 7 8 9 11 11 9 9 10 10 11 11 11 11 10 9 8 8 9 10 11 13 14 15 11 9 9 7 6
15 14 13 12 10 10 9 9 9 9 8 8 7 6 5 5 6 5 4 4 3 2 1 3 5 2 4 2 2 3 3 3 4 5 6 6 7 7 5 6 12 17 19 17 14 12 13 13 15 14 11 9 8 7 6 7 7 7 8 10 11 13 12 10 11 12 12 12 11 11 11 9 9 9 10 11 11 11 14 17 15 11 11 10 8
16 15 14 13 12 11 10 10 10 10 9 9 8 8 7 8 8 5 4 5 2 2 2 3 4 4 4 3 1 2 3 4 5 5 7 6 5 5 4 3 5 9 13 15 13 13 12 10 11 11 10 10 8 8 7 7 7 7 9 11 11 12 14 13 12 12 13 13 13 12 10 8 10 11 10 11 12 11 12 16 17 15 13 11 10
17 16 15 14 14 12 12 12 11 10 10 9 9 8 8 8 8 6 5 5 3 2 2 2 1 2 5 4 1 3 5 3 4 5 5 5 5 6 6 5 4 5 9 12 12 12 9 8 9 9 9 10 7 7 8 8 8 8 8 11 12 11 12 14 13 12 12 13 15 14 11 9 11 10 7 10 12 10 10 13 16 17 16 14 11
18 17 16 15 15 13 13 12 10 10 8 8 8 8 8 7 6 6 5 5 5 3 2 1 1 1 3 3 4 5 6 4 2 2 3 3 5 6 6 5 4 6 7 8 10 11 8 7 10 9 8 8 7 8 9 10 10 11 10 10 12 13 12 14 14 14 14 14 15 15 13 12 12 9 8 11 11 11 11 12 15 16 18 18 15
19 18 18 16 16 14 13 12 10 9 8 7 7 7 8 7 6 7 6 4 5 5 3 1 2 1 2 3 4 5 5 4 4 2 2 2 2 4 4 4 6 8 9 8 8 9 9 9 10 11 10 9 9 10 9 8 9 11 13 12 11 12 14 13 14 16 16 16 16 16 15 15 14 12 12 11 9 10 12 13 15 16 17 18 17
21 19 19 18 16 15 13 12 10 9 7 7 8 9 9 8 6 6 6 5 5 5 4 3 3 2 3 4 5 5 5 4 5 4 2 2 1 3 5 7 10 11 12 11 9 9 10 10 10 12 12 11 11 11 10 9 12 12 12 14 13 14 15 15 15 17 18 17 17 18 17 16 17 17 16 14 12 12 13 14 17 18 17 18 18
22 20 19 18 17 16 14 12 10 9 7 6 8 8 8 7 6 5 6 7 6 4 4 4 4 3 4 4 3 4 5 4 4 4 3 3 3 4 5 6 10 12 13 14 12 10 10 10 11 13 14 13 12 13 10 9 14 15 9 13 11 13 15 16 16 17 18 19 18 18 17 17 18 19 17 17 16 15 15 15 17 19 18 18 18
23 21 19 18 18 16 14 13 11 10 7 5 5 4 5 6 6 5 5 8 8 6 6 5 3 2 2 1 1 2 4 5 5 4 4 3 3 3 5 7 7 9 10 13 15 14 12 11 13 15 16 15 15 14 11 9 12 12 7 10 10 12 14 16 18 18 19 19 20 19 18 19 19 19 18 18 18 16 16 16 17 18 17 18 20
23 23 21 18 17 16 15 15 12 9 6 5 7 5 4 5 6 5 4 6 8 7 6 4 3 1 2 1 1 1 2 3 4 4 5 5 4 3 3 5 7 9 8 9 12 15 16 14 14 16 17 18 18 18 16 12 9 8 5 5 7 10 13 17 19 19 19 19 20 19 19 20 18 17 17 17 18 18 17 18 18 16 16 20 22
24 24 22 20 18 16 16 15 13 11 8 8 8 7 7 6 7 5 4 6 5 5 6 4 4 3 2 2 1 1 1 2 2 3 4 3 4 5 3 4 6 7 7 6 7 11 15 17 18 18 17 16 17 17 18 16 12 9 7 4 4 6 8 14 18 20 21 20 20 20 19 19 17 16 16 17 18 19 19 20 20 17 17 21 21
25 25 23 22 20 17 16 16 14 13 11 10 10 10 9 7 7 5 4 6 5 4 6 5 4 3 2 1 0 1 2 3 2 2 3 3 4 5 5 5 6 6 6 6 5 7 10 14 20 22 19 16 16 15 15 18 16 11 5 2 3 3 4 8 14 19 22 21 20 21 20 20 19 18 17 17 18 19 20 20 21 20 20 21 20
25 26 25 23 22 20 17 17 16 15 13 12 11 11 9 7 6 5 4 6 7 6 5 4 4 3 2 1 2 2 2 3 3 2 2 4 4 4 5 6 6 6 6 6 6 6 7 9 15 22 23 20 20 17 15 18 20 17 11 4 2 2 1 3 7 13 19 21 20 20 22 21 20 19 19 19 18 19 20 20 21 21 22 22 21
25 26 27 24 22 22 19 18 17 15 15 15 12 10 8 8 8 7 7 7 7 8 5 4 4 2 2 2 2 2 2 3 3 3 3 4 4 5 6 6 6 7 7 7 7 7 8 9 11 17 22 24 24 20 17 19 20 20 20 16 10 6 3 6 6 4 11 19 19 19 21 21 19 18 19 20 20 19 20 21 20 21 22 23 23
24 26 28 26 23 22 21 19 18 16 16 16 14 11 10 9 9 6 5 4 7 8 5 4 4 2 1 2 1 1 3 3 2 3 4 4 5 5 6 7 7 8 7 8 8 8 8 9 11 14 18 23 25 23 20 20 18 19 23 23 21 18 12 8 7 3 3 10 15 18 19 19 20 20 20 20 20 21 21 22 22 22 22 22 23
25 25 28 28 24 23 22 21 19 17 17 17 16 13 12 11 9 6 5 4 6 7 6 4 4 3 2 0 1 1 2 2 1 3 4 4 5 6 6 7 8 9 9 8 8 8 9 9 10 13 16 20 24 25 24 21 19 20 24 26 24 24 21 16 13 9 4 2 8 14 17 19 21 21 22 21 21 23 23 23 23 23 23 23 22
26 26 27 27 24 22 22 22 20 18 19 18 17 15 13 12 10 8 7 6 6 6 7 6 4 4 3 1 0 1 1 1 1 2 3 4 5 6 7 7 7 8 9 9 10 9 9 10 11 12 14 18 21 24 24 23 23 21 21 24 25 25 25 24 20 14 9 5 3 5 10 14 17 20 23 23 23 24 23 24 25 23 22 24 23
25 26 25 25 24 22 22 23 20 19 19 18 18 16 13 13 12 10 9 8 8 7 7 7 6 4 4 3 1 1 0 1 2 2 2 2 4 6 8 8 8 9 9 9 10 11 11 11 13 14 14 15 17 21 23 24 24 23 21 21 23 22 20 19 19 16 12 9 5 4 5 5 8 16 23 26 26 26 25 25 26 25 21 22 23
24 25 24 24 24 23 22 22 21 19 20 19 18 17 15 14 13 11 10 9 9 8 7 7 7 6 5 4 3 2 2 2 2 2 2 2 3 5 6 8 8 9 10 8 9 11 12 12 13 14 15 15 16 18 23 25 24 24 23 23 24 23 20 17 18 17 12 9 7 6 6 4 7 14 21 28 29 27 26 26 27 27 24 21 22
Wind_Direction
121 127 125 122 116 107 101 97 94 98 98 91 90 112 150 153 156 152 148 147 147 148 151 154 149 142 136 133 135 136 130 120 116 115 116 116 117 119 117 114 112 112 110 109 106 103 97 90 92 91 89 89 92 94 94 98 101 100 102 102 100 101 101 98 94 92 92 90 87 86 86 85 81 82 80 77 81 81 84 83 81 80 76 75 73
133 129 127 123 115 107 99 94 94 97 102 97 88 99 143 159 157 152 149 149 151 151 152 156 150 143 141 139 140 142 138 129 124 119 121 124 123 123 122 121 120 120 115 111 108 103 96 92 96 97 96 99 101 100 99 100 102 101 106 108 106 106 105 104 104 100 95 92 90 86 82 77 78 84 80 81 92 98 96 89 85 84 80 77 74
131 127 128 127 116 107 94 89 92 97 105 104 94 90 107 147 152 145 148 151 154 155 154 158 154 146 145 144 143 146 143 136 131 125 127 131 130 129 129 127 125 126 123 116 111 106 100 98 100 103 103 106 107 105 104 104 104 103 108 113 109 103 99 99 98 94 94 93 91 85 79 75 78 80 77 81 93 97 92 86 86 85 81 77 74
125 125 127 127 118 106 93 90 91 96 105 106 100 88 92 118 141 143 149 154 155 159 159 160 159 150 147 148 147 148 146 139 134 132 136 138 138 138 135 130 126 128 130 123 116 111 104 105 106 107 108 110 110 107 109 108 108 106 106 111 106 98 95 93 91 93 96 91 87 82 78 79 80 79 78 81 86 88 86 85 84 83 82 80 75
118 126 127 123 118 108 97 93 92 96 103 106 101 89 97 107 131 147 153 157 155 162 166 164 162 155 152 152 150 151 148 142 138 140 147 145 143 141 136 135 133 131 132 129 122 116 111 113 111 111 112 112 111 109 114 115 114 108 102 105 102 97 93 91 91 97 100 92 85 78 78 81 82 81 81 83 83 83 85 86 83 82 81 78 74
122 133 129 122 119 108 97 96 97 102 104 105 101 94 97 100 120 146 156 157 153 157 166 167 164 160 157 156 153 155 150 144 143 147 153 149 147 144 137 140 139 134 135 133 127 121 118 118 114 115 115 115 115 113 118 121 120 110 102 104 101 97 93 92 93 99 103 93 85 80 81 82 82 81 81 83 81 81 84 84 83 82 80 78 75
129 132 125 121 120 107 97 100 103 106 106 105 102 97 97 100 114 138 155 157 157 155 161 166 166 165 162 160 159 161 156 149 149 153 158 152 151 151 143 143 140 137 138 135 129 125 123 122 119 119 120 121 122 119 121 123 122 112 109 109 101 95 92 91 92 96 98 90 89 88 86 86 84 83 82 83 84 86 86 85 84 81 79 77 75
123 125 122 122 124 114 107 108 105 106 106 106 103 99 99 103 112 132 153 155 160 159 163 168 168 169 165 164 165 168 163 156 154 154 159 156 156 156 146 141 140 139 141 138 132 129 128 127 125 125 127 126 127 125 123 124 120 112 115 116 103 96 90 86 87 90 88 86 95 96 94 93 90 87 84 84 87 89 88 89 86 80 79 77 76
116 121 122 124 130 127 121 115 109 110 109 106 103 103 104 106 112 127 149 156 158 158 162 167 168 169 170 169 169 173 168 162 157 155 160 163 164 157 143 141 144 144 144 140 134 134 133 132 130 133 134 131 130 129 125 121 117 114 119 122 112 101 91 84 80 79 83 89 96 96 98 97 94 89 83 85 87 92 94 93 87 82 82 78 75
114 122 124 127 135 134 126 120 116 118 114 109 104 105 108 110 116 125 145 159 159 159 162 165 170 174 175 172 173 179 172 165 159 159 164 168 168 157 149 148 149 148 147 141 138 138 135 134 135 139 141 138 135 131 126 118 116 116 119 125 121 107 96 92 83 74 77 88 99 103 103 102 100 93 86 89 89 98 102 94 89 83 80 79 78
113 120 128 135 139 135 132 129 124 125 119 117 111 107 111 114 120 128 143 152 157 164 164 165 173 177 176 173 177 181 173 166 162 164 168 168 165 159 158 156 155 154 152 147 143 139 137 139 140 143 145 144 140 135 127 119 116 115 116 124 127 115 101 98 84 75 78 83 101 109 106 104 102 96 93 94 91 95 95 87 87 85 81 81 80
111 116 129 139 142 142 142 138 131 131 128 126 120 113 114 117 124 133 146 150 154 165 165 166 174 176 173 174 178 178 173 167 163 166 169 169 164 161 163 161 162 163 160 154 146 140 140 143 146 148 150 149 143 139 130 122 118 111 116 122 129 120 103 96 78 81 91 93 109 113 103 97 97 96 97 97 94 92 90 89 88 87 85 82 79
112 115 131 139 143 148 146 145 143 141 137 133 128 122 120 121 128 137 149 150 152 164 167 167 173 174 174 175 177 180 177 169 164 166 169 172 169 166 168 165 165 167 165 158 147 143 145 145 150 155 155 154 145 142 135 125 119 113 122 124 125 120 106 97 79 89 98 99 115 118 98 90 96 97 99 101 98 94 94 94 91 88 87 85 83
113 121 137 142 144 149 149 152 153 148 145 141 135 130 128 128 132 138 148 150 152 162 164 166 172 174 177 177 179 184 180 174 169 168 173 175 175 174 173 170 167 170 171 164 153 145 148 146 151 158 158 155 148 145 137 129 121 117 127 128 124 124 112 88 78 103 105 94 105 110 90 86 99 100 100 103 100 98 97 97 95 93 93 92 89
116 124 137 143 145 152 156 158 159 157 156 151 143 136 134 135 134 137 147 152 154 163 166 168 175 174 177 177 178 184 182 180 178 176 181 180 183 180 175 174 171 177 178 169 163 154 150 146 153 164 165 159 151 146 138 131 123 121 132 135 130 131 107 74 79 110 111 104 114 111 93 87 102 109 106 104 102 104 103 102 99 95 96 93 90
116 119 126 133 137 147 155 161 164 169 170 161 150 141 137 135 134 138 148 154 156 166 171 171 173 173 175 176 178 185 185 184 184 184 188 187 190 185 179 180 176 182 182 174 172 165 155 153 162 171 172 162 151 146 137 130 123 124 137 145 145 131 90 78 89 110 114 120 138 126 96 94 110 116 111 110 106 106 105 105 102 98 98 95 94
116 115 121 126 127 139 151 159 163 168 172 167 156 146 142 138 137 141 150 156 159 168 172 169 169 172 175 177 180 187 188 185 187 189 193 188 188 189 187 182 176 180 181 177 174 163 157 159 167 171 166 157 148 145 138 131 126 126 140 149 145 114 87 85 90 110 117 124 144 134 101 102 116 120 117 118 111 107 107 108 106 101 102 100 97
120 118 122 126 127 138 149 153 152 159 169 169 165 156 149 143 141 142 149 156 164 175 178 173 170 175 179 179 183 187 185 183 191 194 195 189 185 190 190 182 175 176 177 178 170 154 156 158 162 164 157 152 148 147 141 135 131 128 142 151 136 107 91 87 88 112 117 119 137 128 102 100 115 124 123 127 121 117 116 112 109 104 103 101 98
119 124 126 127 131 138 147 142 140 163 180 175 175 175 162 149 149 146 146 156 166 178 182 178 175 179 181 185 188 185 181 181 193 197 196 191 186 191 191 183 176 177 177 176 169 149 153 157 158 159 153 151 151 152 147 140 137 133 143 154 139 110 94 87 89 121 126 121 134 121 105 105 115 125 129 133 130 124 120 115 113 111 106 103 107
103 119 129 132 134 137 141 139 149 171 187 183 181 190 182 162 158 155 154 162 170 182 184 183 184 187 189 189 187 182 183 189 197 195 195 192 186 189 188 181 175 175 182 183 178 155 153 158 160 159 152 154 158 159 158 151 144 139 146 157 157 131 83 68 74 114 137 137 135 118 108 110 121 129 134 138 133 130 124 121 117 113 110 107 113
97 105 121 134 138 139 139 139 154 169 183 191 186 189 191 173 165 165 166 173 181 191 188 189 195 194 190 184 180 183 191 198 201 194 190 190 185 183 180 179 175 174 188 194 191 162 156 162 163 161 155 158 167 170 174 171 155 148 153 156 170 156 70 62 80 102 136 143 138 125 109 112 129 131 135 138 134 134 128 124 118 111 113 112 105
113 103 100 110 121 136 139 133 138 156 167 186 199 198 198 171 166 177 180 183 186 196 193 191 199 196 188 184 182 189 201 201 202 194 184 185 182 178 177 175 175 176 183 191 192 169 159 168 170 168 166 164 167 171 172 178 171 163 169 160 163 139 73 83 114 96 131 145 137 125 107 114 132 133 139 144 138 136 131 129 125 120 122 119 100
118 104 91 86 73 97 114 115 106 111 138 155 188 170 195 174 170 188 195 195 188 197 200 193 197 198 194 193 187 191 204 203 203 194 175 179 182 178 179 175 174 177 178 178 182 175 165 176 181 177 179 177 170 175 172 165 171 175 183 170 153 129 118 178 122 99 154 156 139 120 111 131 136 138 145 150 145 139 137 141 138 133 135 124 106
111 98 82 80 71 60 67 89 93 94 134 169 171 148 187 185 179 194 203 203 196 200 208 206 202 199 199 198 197 201 209 207 208 202 178 180 182 177 179 177 175 176 177 172 171 173 167 180 191 191 194 195 186 183 179 165 163 173 182 172 150 139 167 189 137 126 168 152 135 126 124 139 141 144 149 154 155 145 143 149 141 134 134 122 112
113 105 92 85 94 93 69 67 77 92 119 129 114 158 174 179 191 203 204 203 204 207 210 214 210 205 205 200 201 213 223 219 211 207 194 187 182 179 180 182 180 178 181 174 170 170 165 173 185 197 203 213 215 194 184 179 163 157 169 167 161 166 169 181 171 173 182 158 137 145 137 146 149 149 153 157 156 152 151 154 143 140 145 133 124
114 104 97 90 94 101 95 77 58 76 117 151 107 139 172 187 203 204 207 203 207 215 210 214 222 211 206 206 206 207 216 222 215 206 199 191 192 191 186 190 191 185 186 180 180 175 168 172 179 196 212 230 229 192 178 176 164 157 166 175 206 193 168 170 177 177 187 169 139 139 128 146 157 156 157 160 161 160 159 159 164 161 159 147 145
107 103 100 95 83 81 89 86 64 61 22 149 123 110 160 206 205 198 205 205 209 217 213 218 233 212 198 207 215 200 193 214 218 209 204 198 200 200 191 196 204 197 188 183 191 183 174 182 188 194 207 232 220 173 172 171 166 181 184 192 211 191 170 175 185 171 178 163 141 136 121 145 164 164 161 163 168 167 164 168 185 221 166 142 152
107 105 105 103 88 76 73 76 69 57 16 39 113 106 69 118 174 199 195 200 207 211 217 225 233 217 193 195 211 202 196 212 212 208 211 211 208 206 200 199 207 206 192 186 197 190 183 194 198 196 193 210 199 165 181 184 179 190 188 196 198 190 177 181 190 180 187 179 163 170 172 185 179 171 168 171 174 172 173 176 183 193 181 154 126
108 105 104 101 99 97 84 85 74 65 69 43 71 92 68 79 76 50 186 202 207 197 211 220 216 222 187 179 214 214 206 201 198 205 211 217 218 211 206 205 209 210 200 194 202 196 191 199 201 206 200 190 181 173 191 195 192 189 189 202 199 201 191 190 195 178 193 210 198 203 208 191 171 175 178 176 176 179 182 182 188 185 183 212 110
117 117 115 102 100 108 94 98 89 73 103 77 67 79 68 75 76 67 78 284 228 215 222 215 194 235 224 186 220 223 215 191 191 201 203 213 226 219 210 211 213 213 209 204 206 201 196 199 194 200 200 184 179 182 195 207 198 188 190 203 206 213 205 202 210 190 198 212 202 193 195 191 175 184 188 181 179 185 188 185 193 193 187 209 209
126 125 123 116 108 110 96 90 99 79 81 97 87 83 82 79 80 96 89 48 15 235 246 244 219 266 279 245 234 224 220 197 187 192 199 207 221 222 216 213 213 215 222 213 204 204 201 195 188 187 191 186 186 181 190 216 207 194 195 201 206 215 216 206 207 211 210 205 198 188 190 198 189 186 192 186 181 182 187 191 197 198 197 201 198
129 127 125 123 106 102 99 88 99 83 71 92 98 87 90 93 92 94 93 68 59 52 330 286 219 220 286 316 266 243 232 219 204 184 197 208 204 214 220 217 213 218 234 222 198 202 201 194 191 189 189 190 186 178 185 209 219 221 214 207 202 208 223 211 204 218 221 209 203 199 197 199 195 193 198 196 191 189 186 192 205 203 199 201 197
124 127 129 127 114 104 106 97 98 90 78 82 90 95 84 91 103 86 88 101 98 116 47 6 264 228 235 328 344 279 267 247 237 207 198 208 202 212 225 220 215 220 236 227 202 204 201 198 199 193 193 187 174 180 192 198 217 237 234 222 205 203 220 218 214 221 223 220 212 209 206 201 202 202 201 200 202 203 192 191 202 202 201 205 206
126 134 133 132 129 121 115 106 100 96 94 84 82 98 86 84 99 84 91 111 114 139 92 345 352 318 250 273 335 320 308 289 273 242 227 219 205 218 240 236 226 226 232 223 208 205 197 197 199 194 193 181 169 188 210 207 217 244 253 250 219 200 208 220 224 219 225 229 216 210 203 202 212 202 196 201 207 213 202 198 198 197 205 205 206
137 139 138 136 132 129 121 114 107 99 97 91 86 92 82 79 87 82 90 97 97 119 71 345 340 345 343 344 322 353 336 293 301 281 251 243 221 214 220 215 216 228 229 218 212 206 194 197 202 196 188 183 185 192 207 219 221 232 245 258 246 210 201 213 223 217 226 231 219 219 212 207 212 199 198 210 212 212 209 208 204 198 205 206 202
142 140 141 140 133 133 127 121 116 109 103 98 96 94 91 87 85 83 83 85 77 83 81 33 308 325 360 16 49 9 5 343 314 304 281 268 257 236 227 217 189 204 215 205 205 206 203 207 203 196 188 190 198 196 206 220 225 232 233 245 255 244 211 204 215 218 222 225 221 226 225 212 210 208 222 224 214 211 211 216 214 208 208 208 200
146 145 145 144 139 139 135 132 127 122 116 110 107 103 107 103 95 93 86 97 88 62 67 56 32 38 21 38 50 21 14 27 17 321 319 313 290 268 251 252 232 223 221 204 205 211 216 216 200 193 197 205 213 216 215 206 210 222 222 230 245 256 240 210 210 216 220 224 221 223 225 220 215 216 224 220 217 223 222 218 219 217 215 215 209
149 151 151 149 146 146 144 143 140 137 134 134 131 124 127 124 124 112 87 103 104 65 38 70 78 64 28 2 2 19 26 25 36 23 340 357 317 284 263 257 246 240 240 226 211 212 217 218 207 198 197 212 227 240 247 229 229 225 211 215 224 241 251 236 220 216 219 224 218 219 224 220 219 221 222 222 226 236 233 222 218 220 221 222 217
154 156 157 153 151 153 155 153 153 151 146 154 161 154 145 131 118 106 84 90 96 65 44 52 51 45 58 23 336 353 20 23 37 40 22 45 7 290 277 262 255 254 253 245 227 216 220 220 217 211 205 214 226 244 269 274 274 264 214 202 211 219 235 243 233 222 223 226 219 217 220 220 221 221 222 224 228 238 238 224 214 215 219 222 220
159 160 162 161 158 159 160 161 161 160 167 185 188 174 152 124 100 87 83 81 70 72 95 72 30 23 49 39 355 354 354 351 19 29 32 40 26 350 331 299 273 268 260 253 247 233 230 227 223 226 223 223 227 237 258 276 288 289 231 195 207 214 220 233 235 228 227 227 224 220 217 221 220 214 215 221 223 230 234 225 214 213 218 220 220
162 165 168 168 164 164 166 168 168 175 192 184 155 135 112 107 100 80 73 77 64 68 94 76 32 4 7 24 45 13 341 340 356 357 353 3 11 6 344 334 312 295 275 259 253 241 235 232 227 233 236 234 235 236 244 257 279 291 245 205 215 215 217 226 228 231 231 228 227 225 221 225 221 213 214 217 213 214 225 226 216 215 220 219 217
165 168 171 172 170 170 173 171 170 178 187 149 131 123 108 102 98 83 66 80 73 72 86 74 67 57 15 60 85 64 15 2 4 348 340 338 341 345 326 326 322 315 309 282 262 247 238 237 232 234 238 236 238 240 241 245 259 275 266 250 238 223 223 226 222 225 231 229 225 224 227 230 223 213 212 213 210 211 218 222 218 220 222 218 219
169 171 173 175 174 177 178 171 170 174 169 154 151 150 146 129 114 114 96 94 90 86 99 88 71 62 25 61 75 52 15 340 341 336 335 329 329 334 327 317 311 311 315 309 285 259 245 240 236 236 240 238 236 239 238 234 245 267 283 290 247 219 221 229 226 223 226 229 223 219 226 232 226 216 214 216 217 216 216 218 219 221 216 215 222
170 172 175 177 176 182 181 171 170 172 168 164 161 155 154 146 127 123 107 110 119 107 99 82 58 38 15 39 112 358 337 319 313 309 313 315 318 317 311 309 306 303 301 293 288 276 259 245 237 235 238 237 233 234 231 228 234 244 265 316 257 233 216 220 222 222 222 225 223 216 220 227 225 219 218 220 221 218 219 220 221 222 216 215 223
170 173 177 178 177 184 184 175 173 171 170 170 172 170 164 157 148 148 156 150 134 110 96 79 61 37 20 348 302 314 310 301 295 292 302 304 306 307 304 306 302 301 301 288 276 271 265 255 241 234 232 234 237 237 235 236 235 226 223 249 283 235 275 269 237 224 221 224 224 220 221 224 221 219 218 221 224 221 220 221 222 225 221 216 219
173 175 177 179 179 183 185 179 174 172 175 173 175 179 171 171 184 188 190 179 134 105 97 86 76 43 11 333 311 313 290 285 285 294 302 296 302 309 306 309 306 300 299 293 288 277 261 253 249 240 234 234 237 238 236 236 232 223 223 232 236 229 277 317 302 241 219 226 228 226 226 225 222 222 220 220 224 222 219 220 222 225 223 215 214
176 177 176 181 181 182 184 179 174 175 177 175 175 179 178 182 194 195 189 171 126 116 121 112 100 87 26 338 328 333 289 286 284 286 296 297 297 299 298 303 304 303 301 294 292 290 278 263 254 247 239 235 233 232 231 227 221 220 225 231 237 239 245 266 279 294 240 230 234 235 234 230 225 222 222 221 220 220 218 217 220 223 222 216 213
178 177 174 180 182 181 182 177 176 178 177 177 178 180 182 183 185 186 183 166 135 135 151 146 120 123 125 55 10 324 285 284 296 282 288 298 298 298 299 302 304 304 304 298 292 287 282 278 270 260 246 235 230 229 227 221 213 218 224 228 234 240 244 250 261 283 312 250 234 237 236 234 231 223 222 223 222 221 217 213 217 219 218 217 218
177 176 174 177 181 182 180 176 177 179 178 180 180 182 186 180 178 186 187 171 155 163 173 164 148 147 149 135 93 315 286 282 286 275 280 288 293 295 288 288 297 301 301 299 297 295 290 285 282 279 262 243 232 227 225 220 214 215 217 221 229 237 245 253 259 266 272 272 259 238 232 232 233 226 221 223 227 225 218 215 215 214 215 218 218
176 175 174 175 181 183 179 177 179 179 179 183 183 186 188 179 180 191 187 172 171 183 175 161 167 173 165 162 166 159 177 258 262 269 277 268 273 286 284 279 278 279 283 292 297 298 299 294 284 282 280 267 248 234 230 226 222 221 217 216 222 228 235 246 252 250 252 261 269 270 248 228 242 238 226 223 227 226 220 216 212 209 214 219 219
173 172 171 174 180 184 180 178 182 182 182 186 187 188 187 181 185 191 189 184 181 183 177 169 176 180 174 174 182 184 188 208 229 256 266 251 260 277 286 285 285 283 277 281 294 294 293 296 289 282 280 278 270 254 240 233 229 229 225 220 220 223 224 230 237 239 240 241 249 266 257 256 283 266 241 226 224 222 217 216 212 208 211 216 221
Height
786 786 787 786 787 786 789 789 791 792 792 793 793 794 794 795 795 797 799 801 803 805 806 807 808 808 809 809 810 811 812 813 813 814 814 814 814 815 816 816 817 817 817 818 819 820 820 820 821 821 821 822 822 823 823 823 823 824 825 827 828 827 827 827 829 831 833 834 834 834 834 835 835 835 836 836 836 837 837 837 837 838 838 839 839
785 786 786 786 787 787 790 790 792 792 793 793 794 795 795 796 796 798 799 801 803 805 807 808 809 810 811 810 811 812 813 814 815 815 816 816 816 817 817 818 818 818 818 819 820 821 822 822 822 822 823 823 824 825 824 825 825 825 827 828 829 828 828 828 830 832 834 835 835 835 835 836 837 837 837 837 837 838 838 838 838 839 839 840 840
785 786 785 786 788 788 790 790 792 792 793 793 794 796 796 798 797 799 800 802 803 806 807 808 810 810 812 812 813 813 814 815 815 816 817 817 817 818 818 819 819 819 820 820 821 822 822 823 823 824 825 825 825 826 826 826 826 827 828 829 830 830 829 829 831 833 835 836 836 836 836 837 838 838 839 839 839 839 839 839 839 840 840 841 841
785 786 787 788 789 790 790 791 793 793 794 794 795 796 797 799 799 800 800 802 804 806 808 809 811 811 812 813 813 814 815 816 817 817 818 818 818 819 819 820 820 820 820 821 822 823 823 824 824 825 826 826 826 827 827 828 827 828 829 830 831 831 830 830 832 834 835 836 836 837 837 838 839 840 840 840 840 840 841 841 841 841 842 842 842
786 786 788 789 790 791 790 791 792 793 794 794 795 796 797 799 800 801 802 803 804 806 808 810 811 812 813 813 814 815 816 817 818 819 819 819 819 820 821 821 821 822 822 822 822 823 824 825 825 826 827 827 827 828 829 829 829 830 830 831 832 832 831 832 833 834 836 837 838 838 838 840 840 841 842 842 842 842 842 842 843 843 843 843 843
786 786 788 788 790 791 790 791 792 793 794 795 795 796 797 799 800 801 803 804 805 808 809 811 812 813 813 814 815 815 817 818 819 820 820 820 820 821 821 822 822 822 823 823 823 824 825 826 826 827 827 828 828 829 830 830 831 831 832 832 833 834 833 834 835 836 837 838 839 839 840 841 842 843 843 843 843 844 844 844 844 844 845 845 844
786 787 788 788 790 791 791 791 792 794 794 795 795 796 797 799 800 801 804 805 806 808 810 812 813 814 814 815 815 816 817 818 820 820 821 821 821 822 822 823 823 823 824 824 824 825 826 826 827 828 828 829 829 830 831 831 832 832 834 833 834 835 834 835 836 837 838 839 840 841 842 842 843 844 844 845 845 845 845 846 846 846 846 846 846
787 788 788 788 789 791 792 792 793 794 795 796 796 797 797 799 800 801 803 805 807 808 810 813 813 814 814 815 816 817 818 818 819 820 821 822 822 822 823 823 824 825 825 825 825 826 827 827 828 829 829 829 830 831 832 832 833 834 835 835 834 835 836 836 837 838 839 840 841 842 842 843 844 845 845 846 846 846 846 847 847 847 847 847 847
788 788 788 789 789 791 793 793 794 795 796 796 796 797 797 798 799 801 803 804 807 809 811 812 813 814 814 815 816 817 818 819 819 820 822 822 823 823 824 825 825 826 826 826 826 827 827 828 829 829 830 830 831 831 833 833 834 835 836 836 835 836 837 837 838 839 840 842 843 843 843 844 845 846 847 847 847 847 847 848 848 848 848 848 848
788 788 788 789 789 791 792 794 795 796 797 796 796 797 797 798 799 801 802 804 806 809 811 812 813 814 815 816 816 818 819 819 819 821 822 823 824 824 825 825 826 827 827 827 827 828 828 829 830 830 831 831 831 832 833 834 835 836 837 837 836 836 837 838 839 840 842 843 844 844 845 845 846 847 847 847 848 848 848 848 849 849 849 849 849
787 788 788 789 790 791 792 794 795 796 797 796 797 797 797 798 799 800 801 803 806 808 810 811 813 814 815 816 816 818 819 820 820 821 822 824 824 825 826 826 827 828 828 828 828 829 829 830 830 831 831 832 832 833 834 834 835 837 837 837 837 837 838 839 840 841 843 844 845 845 845 845 846 848 848 848 849 849 849 849 849 850 850 850 849
788 788 788 790 791 792 793 795 796 797 797 797 797 797 798 798 799 800 801 803 805 807 809 810 812 813 814 816 817 819 820 820 821 822 823 824 825 826 826 827 827 828 829 829 829 830 830 831 831 832 832 833 833 833 834 835 836 837 838 838 838 838 839 839 840 842 844 845 846 845 846 846 847 848 849 849 849 849 849 850 850 850 850 850 850
788 788 789 791 792 793 794 795 796 796 797 797 797 797 798 798 800 800 801 803 805 807 808 810 811 813 814 816 818 819 820 821 821 822 824 824 825 826 826 827 828 829 829 829 830 831 831 832 832 833 833 834 834 834 835 836 837 838 838 838 839 839 839 839 841 843 845 846 846 845 847 847 848 849 850 850 850 850 850 850 851 850 851 850 851
789 789 790 792 793 794 793 795 796 796 797 797 798 797 798 799 800 801 802 803 805 806 808 810 811 813 814 816 818 820 821 821 822 822 824 825 825 826 826 827 828 829 829 830 831 831 832 832 833 834 834 834 835 835 836 836 837 838 839 839 839 839 839 839 841 844 845 846 845 845 847 848 849 850 850 850 850 851 851 851 851 851 851 851 851
790 789 791 792 793 794 794 795 796 797 797 798 798 798 799 800 800 801 803 804 805 807 809 810 811 813 815 817 818 820 821 821 822 822 824 825 825 826 826 827 827 829 830 830 831 832 832 833 834 835 835 835 836 836 836 837 838 839 839 839 840 839 839 839 841 844 845 846 845 846 847 848 849 850 851 851 851 851 851 851 851 852 851 851 851
791 790 792 793 793 794 795 796 796 797 797 798 799 799 800 800 801 802 803 805 805 807 809 810 811 813 815 817 818 820 821 822 822 823 824 825 825 826 826 827 827 829 830 830 831 832 833 833 834 835 836 836 836 837 837 838 838 839 839 840 840 840 840 839 841 843 845 845 845 846 847 848 850 851 851 851 852 852 852 852 852 852 852 852 851
791 792 793 793 794 794 795 796 796 797 798 799 799 800 801 801 802 803 805 805 806 808 809 810 811 813 815 816 818 820 821 822 823 823 824 825 825 826 826 827 827 829 830 830 831 832 833 834 835 835 837 837 837 838 838 838 839 839 840 840 841 841 841 840 842 843 845 845 844 845 847 848 850 851 852 852 852 852 853 852 853 853 852 852 852
792 793 794 795 795 795 796 796 796 797 798 799 799 800 801 802 803 804 806 806 807 809 809 811 811 813 815 817 818 820 821 822 823 824 824 825 825 826 826 827 828 829 829 830 831 832 833 834 835 836 837 838 838 838 839 839 839 840 840 840 841 842 842 841 842 844 845 845 844 845 847 848 850 851 852 852 852 853 853 853 853 853 853 853 852
792 793 794 795 796 797 797 797 797 798 798 799 800 800 801 802 804 805 807 808 808 809 810 811 812 814 816 817 819 820 821 822 824 825 825 825 826 826 827 827 828 829 830 830 832 833 834 834 835 836 837 838 839 839 839 839 839 840 840 841 841 842 842 842 843 844 845 845 845 846 847 849 850 851 852 852 853 853 853 853 854 854 854 854 853
793 793 794 795 796 797 797 798 798 798 799 799 800 800 802 803 804 806 807 808 809 810 811 813 814 815 817 818 819 820 822 822 823 824 825 825 826 827 827 828 829 830 830 831 832 833 834 835 836 836 837 838 839 840 840 840 840 840 840 841 841 842 843 842 842 844 844 844 846 847 848 849 850 852 853 853 853 853 854 854 854 854 855 854 854
794 794 794 795 795 796 797 798 798 799 799 799 800 801 802 803 805 806 807 808 809 811 812 813 815 816 818 819 820 821 822 822 823 824 825 825 825 827 828 829 829 830 831 832 832 833 834 835 836 837 838 838 839 840 840 840 840 840 841 841 841 842 843 843 843 844 843 844 846 847 848 850 851 852 853 854 853 854 854 854 854 854 855 855 854
795 795 796 795 795 796 796 797 798 799 800 800 801 801 802 803 804 805 806 808 809 810 811 813 815 816 818 819 820 821 822 823 823 824 825 825 825 826 828 829 829 831 832 833 833 834 835 836 837 837 838 838 839 839 840 840 840 840 841 841 841 842 843 844 844 845 843 844 846 847 848 849 851 852 854 854 854 854 855 855 854 855 855 855 855
795 796 797 796 797 797 797 798 798 799 801 801 802 802 803 803 804 805 806 807 808 810 811 813 815 816 817 819 821 821 821 822 823 824 825 826 826 826 827 828 830 831 832 833 834 834 835 836 837 838 838 839 839 839 839 840 840 840 840 841 841 842 844 845 845 845 844 844 846 847 848 849 850 852 854 855 855 855 855 855 854 855 855 855 855
796 797 797 798 798 798 799 799 799 800 801 802 802 803 803 804 805 806 807 808 809 810 812 814 815 816 817 819 821 821 821 822 823 824 825 826 826 827 827 828 830 831 832 833 834 835 836 837 838 838 839 838 838 839 839 839 840 840 840 841 841 841 844 845 846 845 844 845 846 847 848 849 850 852 853 854 855 855 855 855 854 855 855 855 856
796 798 799 799 799 800 800 801 801 801 802 802 803 803 804 805 805 806 807 808 810 811 812 814 816 817 818 820 822 822 822 822 823 824 825 826 827 828 828 829 830 831 832 833 833 834 836 837 838 839 838 838 837 839 839 839 839 840 840 841 840 841 844 845 846 845 844 845 846 847 848 848 850 851 853 854 855 855 856 856 855 855 855 855 856
796 798 799 800 800 801 801 802 802 802 802 802 802 804 805 806 806 807 808 808 810 811 812 815 816 817 818 819 822 823 822 822 824 824 825 825 827 828 828 830 830 830 831 832 833 833 835 836 837 838 838 837 837 839 839 838 839 840 840 840 840 841 844 844 845 845 844 845 846 846 848 848 849 850 852 853 854 855 856 856 856 855 855 855 856
797 798 800 800 800 801 802 802 803 803 803 802 802 804 805 806 807 808 808 809 809 810 812 814 815 816 816 817 819 821 822 822 823 825 825 825 826 828 829 830 830 830 831 832 833 833 834 835 835 837 837 836 837 839 839 839 839 839 840 840 840 841 843 844 845 845 844 845 845 846 847 848 849 850 851 853 854 855 856 856 856 855 855 855 856
797 799 800 801 801 802 802 803 803 804 803 803 803 804 805 807 807 808 808 809 809 810 812 813 814 815 816 816 817 819 821 822 823 824 824 825 826 827 828 829 829 830 831 832 833 832 833 834 835 835 836 836 837 839 839 839 839 840 840 840 841 841 842 843 844 845 844 844 845 846 847 848 849 850 851 852 853 854 855 856 856 856 855 855 856
798 799 800 801 802 802 803 804 804 804 804 804 805 805 806 808 809 809 809 809 809 810 812 813 814 814 815 816 816 818 820 822 823 823 823 824 825 826 827 828 828 830 831 832 832 832 832 833 834 834 835 836 837 838 839 839 839 839 840 840 841 841 842 842 843 844 844 843 845 845 847 847 848 849 850 851 852 853 854 855 855 856 856 856 856
799 800 801 801 802 802 803 804 804 804 805 805 806 806 808 809 809 809 809 809 809 810 812 813 813 813 814 815 816 817 818 821 823 823 823 823 824 824 825 826 827 830 832 832 832 832 832 833 833 833 834 835 836 837 839 839 838 838 839 840 840 841 841 842 843 844 843 843 844 845 846 847 847 848 849 850 851 852 854 854 855 855 856 856 856
799 800 801 801 802 803 803 804 804 804 805 806 807 808 809 809 810 810 810 809 809 810 811 812 813 813 813 815 817 817 818 819 822 823 823 823 824 824 823 824 826 829 833 833 832 832 832 832 832 833 834 834 835 836 838 839 839 839 838 839 840 840 841 842 842 843 844 843 843 844 845 846 847 847 848 849 850 851 853 854 854 855 856 856 856
799 800 801 802 802 803 804 804 805 805 805 806 807 808 809 810 811 810 810 810 810 810 811 812 812 813 814 816 817 817 818 819 821 822 821 822 823 823 822 823 825 829 833 833 832 832 832 833 833 833 834 834 834 835 836 838 839 839 838 838 839 840 841 841 842 843 844 842 842 843 844 845 846 846 847 848 849 850 852 853 853 854 855 855 856
798 800 801 802 803 803 804 805 805 806 806 807 808 809 809 810 811 811 811 811 811 811 812 812 813 814 814 816 817 817 817 818 819 821 821 822 822 824 824 824 826 829 832 833 832 832 832 832 833 833 834 833 833 834 836 837 839 839 839 838 838 839 840 841 842 842 843 843 842 842 843 844 845 845 846 846 847 848 850 851 852 853 854 855 856
798 800 801 802 803 804 805 805 806 806 807 807 808 809 810 810 811 811 811 812 812 812 812 812 812 813 814 815 816 816 817 817 818 819 821 822 822 824 826 827 829 830 832 833 832 832 832 832 833 834 834 833 832 834 836 837 838 839 839 838 837 838 838 840 841 841 842 842 842 841 841 842 843 844 845 845 846 847 848 849 851 852 853 854 855
798 800 801 802 803 804 805 806 806 807 807 808 808 809 810 810 811 812 812 812 813 813 813 813 812 812 813 814 815 816 816 816 817 818 819 820 820 822 825 828 830 832 834 834 832 832 832 832 832 833 833 832 832 833 835 836 838 839 839 838 838 837 837 838 840 841 841 841 842 841 841 841 841 843 843 844 845 845 846 847 849 851 852 852 853
798 800 801 802 803 804 805 806 807 807 808 809 809 810 810 811 812 812 812 813 813 813 814 814 813 813 813 813 814 815 816 816 817 818 818 819 820 821 823 825 827 830 833 834 832 832 832 832 832 832 832 832 832 832 833 835 837 839 839 839 838 837 837 837 838 839 840 840 841 841 841 840 840 841 842 842 843 844 845 846 847 849 850 851 852
797 799 801 802 803 804 806 806 807 808 808 809 809 810 811 811 812 812 812 812 813 813 814 814 814 814 814 813 813 815 817 817 817 818 818 818 819 821 822 823 825 827 829 830 830 830 831 831 830 831 831 831 831 831 832 834 835 837 838 838 838 837 837 837 837 838 839 839 840 840 840 841 840 841 841 841 841 842 843 844 845 846 848 848 850
797 799 800 802 803 804 805 806 807 808 809 809 810 810 810 811 811 811 812 812 813 813 813 814 814 814 814 813 813 814 816 816 817 818 818 819 819 820 821 822 823 824 824 826 827 828 829 829 829 828 828 829 830 830 831 833 834 835 835 836 837 837 836 836 836 837 837 837 838 838 839 840 840 841 841 841 841 841 842 843 844 845 846 847 848
796 798 800 801 802 804 805 806 807 807 808 808 809 809 809 810 811 811 812 812 813 813 814 813 814 814 814 814 814 814 815 815 816 817 818 819 819 820 820 820 821 822 822 823 825 826 826 827 827 826 826 827 828 829 830 832 833 833 833 833 834 835 835 836 835 835 836 836 836 837 837 838 838 839 840 841 841 841 841 842 843 844 845 845 846
795 797 799 800 802 803 804 806 806 807 807 807 808 808 809 810 811 811 812 812 813 813 813 814 814 814 813 814 814 814 814 814 815 816 816 817 818 819 819 819 819 820 821 822 822 823 824 825 825 824 824 825 826 828 829 831 831 832 832 831 831 832 833 834 835 834 835 835 835 835 835 836 836 836 838 839 840 840 839 840 841 842 843 844 845
794 796 797 799 800 802 804 805 806 806 806 806 807 808 809 810 811 811 812 812 813 813 813 813 813 813 813 814 814 814 814 814 814 814 815 815 816 817 818 818 817 818 819 819 820 821 822 823 824 823 823 824 825 826 828 830 831 831 832 831 830 830 831 832 833 833 833 833 833 834 834 834 834 834 835 836 837 839 838 838 839 841 841 842 843
792 794 796 798 799 801 802 803 805 806 806 806 807 808 809 810 810 811 811 812 812 813 813 812 813 812 813 813 813 814 814 814 814 814 814 815 815 816 816 817 817 817 818 818 818 819 820 822 823 822 822 823 824 825 827 830 831 831 831 832 830 829 829 830 831 831 832 832 832 832 832 833 833 833 833 834 835 837 837 837 837 839 840 840 841
790 792 794 796 798 800 801 802 804 805 805 806 807 808 809 809 810 811 811 811 812 812 812 811 812 812 812 812 812 813 813 814 814 815 815 815 815 816 816 816 817 817 817 817 818 818 819 820 821 822 822 823 824 824 826 828 831 831 830 832 831 829 829 829 828 829 829 830 830 830 831 831 831 832 832 833 834 835 836 836 836 837 838 838 838
787 790 792 794 796 798 800 801 802 804 804 806 806 807 808 809 810 810 810 811 811 811 811 811 811 812 811 812 812 812 813 813 814 815 815 816 816 816 816 817 817 817 817 817 817 818 818 819 820 821 822 823 822 823 825 827 829 830 829 829 828 828 829 828 826 826 827 827 828 828 829 829 829 830 830 831 832 833 834 835 835 836 836 836 836
784 787 790 792 794 796 798 799 801 802 803 805 805 806 807 808 809 810 810 810 810 811 811 811 811 811 811 811 811 812 812 813 813 814 815 815 816 816 816 817 817 817 817 817 818 817 818 818 819 820 821 821 820 821 823 824 826 827 827 827 827 828 828 827 826 825 825 826 826 826 827 827 827 827 828 829 831 832 832 834 835 835 835 835 835
781 785 787 790 792 794 796 798 800 801 802 803 804 805 806 807 808 808 809 809 810 810 811 811 811 811 811 811 811 811 812 812 813 813 814 815 815 816 816 816 817 817 817 817 817 817 817 817 817 818 818 819 819 820 822 822 823 824 824 825 826 827 828 829 829 827 824 824 825 825 826 826 826 826 827 828 829 830 831 832 833 833 833 833 834
779 782 785 787 790 792 794 796 798 800 801 802 804 805 805 806 807 807 808 808 809 809 810 811 811 811 811 811 811 811 812 812 812 813 813 814 814 815 815 815 816 816 816 817 816 816 816 816 816 816 816 816 817 818 819 820 821 822 822 823 823 824 828 831 830 827 826 825 824 824 824 824 824 825 825 826 826 827 828 829 831 832 832 832 832
777 780 782 785 788 790 792 794 796 798 799 801 802 804 804 805 806 806 807 808 808 809 810 810 811 811 811 811 811 811 811 811 812 812 813 813 813 814 814 814 814 815 815 815 815 815 815 815 815 814 814 814 814 814 816 817 818 819 819 820 821 822 825 828 828 827 827 825 823 822 821 822 822 823 823 824 824 825 825 826 828 829 830 830 831
775 777 780 783 786 788 790 792 795 796 798 800 801 802 803 804 805 806 806 807 808 809 809 810 810 811 811 811 811 811 811 811 812 812 812 812 812 813 812 812 812 812 813 813 813 813 813 813 813 813 813 812 812 812 813 814 815 816 816 817 819 820 822 823 824 826 825 825 823 820 819 821 821 820 821 822 822 822 823 824 825 826 827 828 829
772 775 778 781 784 786 788 790 793 795 796 798 800 801 802 803 804 805 805 806 807 808 808 809 810 810 810 811 811 811 812 812 812 812 812 812 812 812 811 811 811 810 810 810 811 811 811 811 811 811 811 810 810 810 811 812 813 813 814 815 816 817 819 820 821 822 823 823 823 820 818 820 821 820 819 819 820 820 820 821 822 823 824 825 826
770 774 776 779 782 784 786 789 791 793 794 796 798 800 801 801 803 804 804 805 806 807 807 808 809 809 810 810 811 811 811 812 812 812 812 811 811 811 811 810 810 809 809 809 809 809 809 809 809 809 809 809 809 808 808 809 810 811 812 812 813 813 815 816 817 819 820 820 820 819 817 817 820 821 818 816 816 817 817 818 818 820 821 822 824